Stockton, CA

9:30 AM PST on February 26, 2017 (GMT -0800)
Stockton Metro

Weather History for KSCK - July, 2013

Change the Weather History Date:

Wednesday, July 17, 2013

  Actual Average Record
Temperature  
Mean Temperature 72 °F -  
Max Temperature 90 °F 94 °F 110 °F (2006)
Min Temperature 53 °F 60 °F 52 °F (1955)
Degree Days  
Heating Degree Days 0 0  
Month to date heating degree days 0 0  
Since 1 June heating degree days 0 7  
Since 1 July heating degree days 0 0  
Cooling Degree Days 7 12  
Month to date cooling degree days 220 196  
Year to date cooling degree days 682 545  
Since 1 June cooling degree days 501 426  
Growing Degree Days 22 (Base 50)    
Moisture  
Dew Point 52 °F    
Average Humidity 56    
Maximum Humidity 93    
Minimum Humidity 19    
Precipitation  
Precipitation 0.00 in 0.00 in 0.00 in (2017)
Month to date precipitation 0.00 0.00  
Year to date precipitation 2.88 9.03  
Since 1 July precipitation 0.00  
Snow  
Snow 0.00 in - - ()
Month to date snowfall 0.0  
Since 1 June snowfall 0.0  
Since 1 July snowfall 0.0  
Snow Depth -    
Sea Level Pressure  
Sea Level Pressure 30.01 in    
Wind  
Wind Speed 6 mph (NW)    
Max Wind Speed 15 mph    
Max Gust Speed 17 mph    
Visibility 10 miles    
Events      
T = Trace of Precipitation, MM = Missing Value Source: NWS Daily Summary

Daily Weather History Graph

Daily Weather History Graph

Search for Another Location

Airport or City:

Trip Planner

Search our weather history database for the weather conditions in past years. The results will help you decide how hot, cold, wet, or windy it might be!

Date:

Astronomy

Jul. 17, 2013 Rise Set
Actual Time 5:56 AM PDT 8:25 PM PDT
Civil Twilight 5:26 AM PDT 8:55 PM PDT
Nautical Twilight 4:48 AM PDT 9:33 PM PDT
Astronomical Twilight 4:06 AM PDT 10:14 PM PDT
Moon 3:21 PM PDT (7/17) 1:05 AM PDT (7/17)
Length of Visible Light 15h 29m
Length of Day
14h 29m
Waxing Gibbous, 68% of the Moon is Illuminated
Jul 17
Waxing Gibbous
Jul 22
Full
Jul 29
Last Quarter
Aug 6
New
Aug 14
First Quarter

Hourly Weather History & Observations

Time (PDT) Temp. Heat Index Dew Point Humidity Pressure Visibility Wind Dir Wind Speed Gust Speed Precip Events Conditions
12:55 AM 59.0 °F - 52.0 °F 78% 30.00 in 10.0 mi NNW 4.6 mph - N/A   Clear
1:55 AM 57.9 °F - 52.0 °F 81% 29.99 in 10.0 mi Calm Calm - N/A   Clear
2:55 AM 55.9 °F - 53.1 °F 90% 30.00 in 10.0 mi NNE 5.8 mph - N/A   Clear
3:55 AM 55.0 °F - 52.0 °F 89% 30.00 in 10.0 mi NNE 4.6 mph - N/A   Clear
4:55 AM 54.0 °F - 52.0 °F 93% 30.01 in 10.0 mi NE 3.5 mph - N/A   Clear
5:55 AM 53.1 °F - 51.1 °F 93% 30.02 in 10.0 mi North 4.6 mph - N/A   Clear
6:55 AM 55.9 °F - 53.1 °F 90% 30.04 in 10.0 mi NNE 4.6 mph - N/A   Clear
7:55 AM 61.0 °F - 55.0 °F 81% 30.05 in 10.0 mi NW 4.6 mph - N/A   Clear
8:55 AM 64.9 °F - 54.0 °F 68% 30.06 in 10.0 mi WNW 8.1 mph - N/A   Clear
9:55 AM 69.1 °F - 55.0 °F 61% 30.06 in 10.0 mi NW 11.5 mph - N/A   Clear
10:55 AM 72.0 °F - 55.0 °F 55% 30.06 in 10.0 mi NW 11.5 mph - N/A   Clear
11:55 AM 75.0 °F - 54.0 °F 48% 30.05 in 10.0 mi NW 9.2 mph - N/A   Clear
12:55 PM 79.0 °F - 55.0 °F 44% 30.04 in 10.0 mi WNW 8.1 mph - N/A   Clear
1:55 PM 82.9 °F 81.8 °F 53.1 °F 36% 30.03 in 10.0 mi WNW 10.4 mph 16.1 mph N/A   Clear
2:55 PM 84.9 °F - 51.1 °F 31% 30.01 in 10.0 mi WNW 9.2 mph - N/A   Clear
3:55 PM 87.1 °F - 51.1 °F 29% 30.00 in 10.0 mi NW 6.9 mph - N/A   Clear
4:55 PM 90.0 °F - 43.0 °F 19% 29.98 in 10.0 mi NW 9.2 mph - N/A   Clear
5:55 PM 90.0 °F - 43.0 °F 19% 29.97 in 10.0 mi WNW 6.9 mph - N/A   Clear
6:55 PM 88.0 °F - 48.9 °F 26% 29.97 in 10.0 mi WNW 11.5 mph - N/A   Clear
7:55 PM 84.0 °F - 48.9 °F 29% 29.97 in 10.0 mi NW 9.2 mph - N/A   Clear
8:55 PM 77.0 °F - 54.0 °F 45% 29.98 in 10.0 mi NW 10.4 mph - N/A   Clear
9:55 PM 73.9 °F - 55.0 °F 52% 29.99 in 10.0 mi WNW 9.2 mph - N/A   Clear
10:55 PM 70.0 °F - 55.9 °F 61% 30.00 in 10.0 mi WNW 8.1 mph - N/A   Clear
11:55 PM 66.9 °F - 54.0 °F 63% 30.00 in 10.0 mi NW 6.9 mph - N/A   Clear